TimeAKDT,TemperatureF,Dew PointF,Humidity,Sea Level PressureIn,VisibilityMPH,Wind Direction,Wind SpeedMPH,Gust SpeedMPH,PrecipitationIn,Events,Conditions,WindDirDegrees,DateUTC
12:16 AM,48.2,39.2,71,30.03,10.0,East,3.5,-,N/A,,Mostly Cloudy,90,2013-05-11 08:16:00
12:36 AM,-9999,-9999,N/A,30.01,-9999.0,ENE,8.1,-,N/A,,Unknown,60,2013-05-11 08:36:00
12:56 AM,48.2,39.2,71,30.01,10.0,ENE,6.9,-,N/A,,Clear,70,2013-05-11 08:56:00
1:16 AM,46.4,39.2,76,30.00,10.0,ESE,6.9,-,N/A,,Clear,110,2013-05-11 09:16:00
1:36 AM,48.2,39.2,71,29.99,10.0,SE,6.9,-,N/A,,Clear,130,2013-05-11 09:36:00
1:56 AM,48.2,39.2,71,29.97,10.0,East,3.5,-,N/A,,Partly Cloudy,90,2013-05-11 09:56:00
2:16 AM,48.2,37.4,66,29.96,10.0,SE,6.9,-,N/A,,Mostly Cloudy,140,2013-05-11 10:16:00
2:36 AM,48.2,39.2,71,29.95,10.0,WSW,4.6,-,N/A,,Overcast,250,2013-05-11 10:36:00
2:56 AM,48.2,39.2,71,29.94,10.0,Calm,Calm,-,N/A,,Overcast,0,2013-05-11 10:56:00
3:16 AM,48.2,39.2,71,29.94,10.0,SSW,3.5,-,N/A,,Overcast,200,2013-05-11 11:16:00
3:36 AM,50.0,39.2,66,29.94,10.0,ESE,4.6,-,N/A,,Overcast,110,2013-05-11 11:36:00
3:56 AM,48.2,39.2,71,29.94,10.0,West,5.8,-,N/A,,Overcast,280,2013-05-11 11:56:00
4:16 AM,48.2,39.2,71,29.94,10.0,West,6.9,-,N/A,,Overcast,260,2013-05-11 12:16:00
4:36 AM,48.2,39.2,71,29.94,10.0,WSW,6.9,-,N/A,,Overcast,250,2013-05-11 12:36:00
4:56 AM,48.2,39.2,71,29.93,10.0,Calm,Calm,-,N/A,,Overcast,0,2013-05-11 12:56:00
5:16 AM,48.2,39.2,71,29.93,10.0,Calm,Calm,-,N/A,,Overcast,0,2013-05-11 13:16:00
5:36 AM,48.2,41.0,76,29.92,10.0,Calm,Calm,-,N/A,,Overcast,0,2013-05-11 13:36:00
5:56 AM,48.2,42.8,82,29.93,10.0,Calm,Calm,-,N/A,,Overcast,0,2013-05-11 13:56:00
6:16 AM,48.2,42.8,82,29.94,7.0,Calm,Calm,-,0.01,,Overcast,0,2013-05-11 14:16:00
6:36 AM,46.4,42.8,87,29.92,7.0,Calm,Calm,-,0.01,,Overcast,0,2013-05-11 14:36:00
6:56 AM,48.2,44.6,87,29.90,10.0,Calm,Calm,-,0.02,,Overcast,0,2013-05-11 14:56:00
7:16 AM,48.2,44.6,87,29.88,10.0,WSW,5.8,-,0.01,,Overcast,240,2013-05-11 15:16:00
7:36 AM,48.2,44.6,87,29.87,10.0,WSW,6.9,-,0.01,,Overcast,250,2013-05-11 15:36:00
7:56 AM,48.2,44.6,87,29.86,10.0,SW,6.9,-,0.01,,Overcast,230,2013-05-11 15:56:00
8:16 AM,48.2,44.6,87,29.86,10.0,SW,5.8,-,N/A,,Overcast,220,2013-05-11 16:16:00
8:36 AM,50.0,46.4,87,29.85,10.0,SW,3.5,-,N/A,,Overcast,230,2013-05-11 16:36:00
8:56 AM,50.0,46.4,87,29.84,10.0,SSW,3.5,-,N/A,,Overcast,210,2013-05-11 16:56:00
9:16 AM,51.8,48.2,88,29.85,10.0,ENE,5.8,-,N/A,,Overcast,60,2013-05-11 17:16:00
9:36 AM,50.0,44.6,82,29.85,10.0,Calm,Calm,-,0.01,,Overcast,0,2013-05-11 17:36:00
9:56 AM,50.0,44.6,82,29.85,10.0,Calm,Calm,-,0.03,,Overcast,0,2013-05-11 17:56:00
10:16 AM,50.0,44.6,82,29.85,10.0,ENE,6.9,-,0.01,,Overcast,60,2013-05-11 18:16:00
10:36 AM,48.2,44.6,87,29.84,10.0,ENE,6.9,-,0.01,,Overcast,60,2013-05-11 18:36:00
11:16 AM,51.8,46.4,82,29.83,10.0,East,4.6,-,0.01,,Overcast,100,2013-05-11 19:16:00
11:36 AM,53.6,46.4,77,29.84,10.0,ESE,6.9,-,0.02,,Overcast,120,2013-05-11 19:36:00
11:56 AM,53.6,48.2,82,29.84,5.0,East,6.9,-,0.02,,Overcast,90,2013-05-11 19:56:00
12:16 PM,53.6,48.2,82,29.84,5.0,Calm,Calm,-,N/A,,Overcast,0,2013-05-11 20:16:00
12:36 PM,53.6,46.4,77,29.83,5.0,Calm,Calm,-,0.03,,Overcast,0,2013-05-11 20:36:00
12:56 PM,51.8,48.2,88,29.83,3.0,NW,3.5,-,0.07,,Overcast,310,2013-05-11 20:56:00
1:36 PM,-9999,-9999,N/A,29.82,-9999.0,South,3.5,-,N/A,,Unknown,180,2013-05-11 21:36:00
1:56 PM,53.6,48.2,82,29.83,5.0,Calm,Calm,-,0.01,,Overcast,0,2013-05-11 21:56:00
2:16 PM,53.6,48.2,82,29.82,5.0,East,6.9,-,0.01,,Overcast,100,2013-05-11 22:16:00
2:36 PM,53.6,46.4,77,29.82,5.0,Calm,Calm,-,0.02,,Overcast,0,2013-05-11 22:36:00
2:56 PM,53.6,48.2,82,29.81,4.0,East,8.1,-,0.08,,Overcast,100,2013-05-11 22:56:00
3:16 PM,53.6,48.2,82,29.81,4.0,East,5.8,-,0.02,,Overcast,100,2013-05-11 23:16:00
3:36 PM,53.6,48.2,82,29.80,4.0,SE,4.6,-,0.05,,Overcast,140,2013-05-11 23:36:00
3:56 PM,53.6,48.2,82,29.79,4.0,Calm,Calm,-,0.05,,Overcast,0,2013-05-11 23:56:00
4:16 PM,53.6,48.2,82,29.79,4.0,Calm,Calm,-,0.02,,Overcast,0,2013-05-12 00:16:00
4:36 PM,53.6,48.2,82,29.79,4.0,West,3.5,-,0.02,,Overcast,280,2013-05-12 00:36:00
4:56 PM,53.6,48.2,82,29.78,3.0,Calm,Calm,-,0.02,,Overcast,0,2013-05-12 00:56:00
5:16 PM,51.8,48.2,88,29.79,3.0,Calm,Calm,-,0.01,,Overcast,0,2013-05-12 01:16:00
5:36 PM,51.8,48.2,88,29.79,3.0,South,3.5,-,0.01,,Overcast,190,2013-05-12 01:36:00
6:16 PM,51.8,48.2,88,29.77,5.0,Calm,Calm,-,N/A,,Overcast,0,2013-05-12 02:16:00
6:36 PM,51.8,48.2,88,29.77,5.0,North,3.5,-,0.01,,Overcast,10,2013-05-12 02:36:00
6:56 PM,51.8,48.2,88,29.76,10.0,NW,3.5,-,0.01,,Overcast,320,2013-05-12 02:56:00
7:16 PM,53.6,48.2,82,29.76,10.0,North,3.5,-,N/A,,Overcast,350,2013-05-12 03:16:00
7:36 PM,53.6,48.2,82,29.75,10.0,Calm,Calm,-,N/A,,Overcast,0,2013-05-12 03:36:00
7:56 PM,51.8,48.2,88,29.75,10.0,SSW,5.8,-,N/A,,Overcast,210,2013-05-12 03:56:00
8:16 PM,51.8,48.2,88,29.75,10.0,Calm,Calm,-,N/A,,Overcast,0,2013-05-12 04:16:00
8:36 PM,51.8,48.2,88,29.75,10.0,Calm,Calm,-,N/A,,Overcast,0,2013-05-12 04:36:00
8:56 PM,51.8,46.4,82,29.74,10.0,Calm,Calm,-,N/A,,Overcast,0,2013-05-12 04:56:00
9:16 PM,51.8,48.2,88,29.74,10.0,Calm,Calm,-,N/A,,Overcast,0,2013-05-12 05:16:00
9:36 PM,50.0,46.4,87,29.74,10.0,Calm,Calm,-,N/A,,Overcast,0,2013-05-12 05:36:00
9:56 PM,48.2,46.4,93,29.73,10.0,East,3.5,-,N/A,,Overcast,90,2013-05-12 05:56:00
10:16 PM,48.2,46.4,93,29.71,10.0,Calm,Calm,-,N/A,,Mostly Cloudy,0,2013-05-12 06:16:00
10:36 PM,48.2,44.6,87,29.70,10.0,Calm,Calm,-,N/A,,Mostly Cloudy,0,2013-05-12 06:36:00
10:56 PM,48.2,44.6,87,29.70,10.0,Calm,Calm,-,N/A,,Overcast,0,2013-05-12 06:56:00
11:16 PM,48.2,44.6,87,29.70,10.0,Calm,Calm,-,N/A,,Overcast,0,2013-05-12 07:16:00
11:36 PM,48.2,44.6,87,29.69,10.0,Calm,Calm,-,N/A,,Overcast,0,2013-05-12 07:36:00
11:56 PM,48.2,44.6,87,29.68,10.0,Calm,Calm,-,N/A,,Overcast,0,2013-05-12 07:56:00